Two Harbors, MN

11:35 AM CDT on April 26, 2018 (GMT -0500)
Helgeson

Weather History for KTWM - January, 2014

Change the Weather History Date:

Thursday, January 16, 2014

  Actual Average Record
Temperature  
Mean Temperature 18 °F -  
Max Temperature 28 °F 23 °F 45 °F (1973)
Min Temperature 8 °F 4 °F -32 °F (1982)
Degree Days  
Heating Degree Days 47    
Moisture  
Dew Point 6 °F    
Average Humidity 73    
Maximum Humidity 86    
Minimum Humidity 62    
Precipitation  
Precipitation 0.02 in - - ()
Sea Level Pressure  
Sea Level Pressure 29.42 in    
Wind  
Wind Speed 5 mph (NW)    
Max Wind Speed 16 mph    
Max Gust Speed 29 mph    
Visibility 5 miles    
Events Snow    
Averages and records for this station are not official NWS values.
T = Trace of Precipitation, MM = Missing Value Source: NWS Daily Summary

Daily Weather History Graph

Daily Weather History Graph

Search for Another Location

Airport or City:

Astronomy

Jan. 16, 2014 Rise Set
Actual Time 7:47 AM CST 4:46 PM CST
Civil Twilight 7:13 AM CST 5:20 PM CST
Nautical Twilight 6:35 AM CST 5:58 PM CST
Astronomical Twilight 5:59 AM CST 6:34 PM CST
Moon 5:45 PM CST (1/16) 7:35 AM CST (1/16)
Length of Visible Light 10h 06m
Length of Day
8h 58m
Full, 100% of the Moon is Illuminated
Jan 16
Full
Jan 23
Last Quarter
Jan 30
New
Feb 6
First Quarter
Feb 14
Full

Hourly Weather History & Observations

Time (CST) Temp. Windchill Dew Point Humidity Pressure Visibility Wind Dir Wind Speed Gust Speed Precip Events Conditions
12:13 AM 14.0 °F 6.5 °F 8.6 °F 79% 29.22 in 5.0 mi SW 4.6 mph - N/A Snow Light Snow
12:33 AM 14.0 °F 8.2 °F 10.4 °F 86% 29.21 in 2.0 mi SW 3.5 mph - N/A Snow Light Snow
12:54 AM 15.8 °F 10.2 °F 10.4 °F 79% 29.21 in 2.5 mi SW 3.5 mph - N/A Snow Light Snow
1:13 AM 15.8 °F - 10.4 °F 79% 29.21 in 2.5 mi Calm Calm - N/A Snow Light Snow
1:33 AM 15.8 °F - 10.4 °F 79% 29.21 in 2.5 mi Calm Calm - 0.01 in   Overcast
1:53 AM 14.0 °F - 8.6 °F 79% 29.21 in 2.5 mi Calm Calm - 0.02 in Snow Light Snow
2:14 AM 14.0 °F - 8.6 °F 79% 29.21 in 2.5 mi Calm Calm - N/A Snow Light Snow
2:33 AM 14.0 °F - 8.6 °F 79% 29.20 in 2.0 mi Calm Calm - N/A Snow Light Snow
2:53 AM 14.0 °F - 10.4 °F 86% 29.21 in 2.0 mi Calm Calm - N/A Snow Light Snow
3:13 AM 15.8 °F - 10.4 °F 79% 29.20 in 10.0 mi Calm Calm - N/A   Overcast
3:33 AM 15.8 °F - 10.4 °F 79% 29.20 in 10.0 mi Calm Calm - N/A   Overcast
3:54 AM 15.8 °F - 10.4 °F 79% 29.20 in 2.5 mi Calm Calm - N/A Snow Light Snow
4:13 AM 15.8 °F - 10.4 °F 79% 29.19 in 10.0 mi Calm Calm - N/A   Overcast
4:33 AM 15.8 °F - 12.2 °F 86% 29.19 in 10.0 mi Calm Calm - N/A   Overcast
4:54 AM 17.6 °F - 12.2 °F 79% 29.18 in 10.0 mi Calm Calm - N/A   Overcast
5:13 AM 17.6 °F - 12.2 °F 79% 29.19 in 10.0 mi Calm Calm - N/A   Overcast
5:33 AM 17.6 °F - 12.2 °F 79% 29.18 in 5.0 mi Calm Calm - N/A   Overcast
5:54 AM 17.6 °F 12.3 °F 14.0 °F 86% 29.19 in 3.0 mi SW 3.5 mph - N/A   Overcast
6:13 AM 19.4 °F - 15.8 °F 86% 29.19 in 2.0 mi Calm Calm - N/A Snow Light Snow
6:33 AM 19.4 °F 14.3 °F 15.8 °F 86% 29.19 in 7.0 mi WSW 3.5 mph - N/A Snow Light Snow
6:53 AM 24.8 °F 19.1 °F 19.4 °F 80% 29.19 in 5.0 mi West 4.6 mph - N/A   Haze
7:13 AM 26.6 °F 20.0 °F 21.2 °F 80% 29.19 in 10.0 mi WNW 5.8 mph - N/A   Overcast
7:33 AM 28.4 °F 21.2 °F 23.0 °F 80% 29.20 in 10.0 mi NW 6.9 mph - N/A   Overcast
7:53 AM 26.6 °F 18.2 °F 21.2 °F 80% 29.22 in 10.0 mi NW 8.1 mph 23.0 mph N/A Snow Light Snow
8:13 AM 24.8 °F 13.4 °F 15.8 °F 69% 29.25 in 5.0 mi WNW 12.7 mph 26.5 mph N/A   Haze
8:34 AM 21.2 °F 11.7 °F 15.8 °F 80% 29.26 in 1.0 mi NW 8.1 mph 17.3 mph N/A Snow Light Snow
8:53 AM 19.4 °F 8.6 °F 12.2 °F 74% 29.27 in 5.0 mi WNW 9.2 mph 25.3 mph N/A   Haze
9:13 AM 17.6 °F 5.0 °F 10.4 °F 73% 29.29 in 5.0 mi WNW 11.5 mph 19.6 mph N/A Snow Light Snow
9:33 AM 15.8 °F 4.2 °F 6.8 °F 68% 29.31 in 7.0 mi NW 9.2 mph 21.9 mph N/A   Overcast
9:53 AM 14.0 °F 6.5 °F 6.8 °F 73% 29.33 in 3.0 mi WNW 4.6 mph 21.9 mph N/A   Haze
10:13 AM 12.2 °F -1.8 °F 3.2 °F 67% 29.35 in 1.0 mi WNW 11.5 mph 16.1 mph N/A Snow Light Snow
10:33 AM 10.4 °F -3.3 °F 1.4 °F 67% 29.36 in 1.0 mi WNW 10.4 mph 27.6 mph N/A Snow Light Snow
10:53 AM 10.4 °F -4.8 °F 1.4 °F 67% 29.38 in 1.8 mi NW 12.7 mph 20.7 mph N/A Snow Light Snow
11:13 AM 10.4 °F -2.4 °F 1.4 °F 67% 29.39 in 2.0 mi NW 9.2 mph 21.9 mph N/A Snow Light Snow
11:34 AM 10.4 °F -0.4 °F 1.4 °F 67% 29.41 in 4.0 mi WNW 6.9 mph 17.3 mph N/A Snow Light Snow
11:53 AM 10.4 °F -2.4 °F -0.4 °F 62% 29.42 in 7.0 mi WNW 9.2 mph 23.0 mph N/A   Mostly Cloudy
12:13 PM 8.6 °F -6.3 °F -0.4 °F 67% 29.43 in 10.0 mi WNW 11.5 mph 23.0 mph N/A   Overcast
12:34 PM 8.6 °F -2.6 °F -0.4 °F 67% 29.43 in 3.0 mi WNW 6.9 mph 19.6 mph N/A Snow Light Snow
12:53 PM 8.6 °F -2.6 °F -0.4 °F 67% 29.44 in 2.5 mi NW 6.9 mph 21.9 mph N/A Snow Light Snow
1:13 PM 8.6 °F -6.3 °F -0.4 °F 67% 29.45 in 2.5 mi WNW 11.5 mph 17.3 mph N/A Snow Light Snow
1:34 PM 8.6 °F -3.7 °F -0.4 °F 67% 29.45 in 3.0 mi NW 8.1 mph 18.4 mph N/A Snow Light Snow
1:53 PM 8.6 °F -6.3 °F -0.4 °F 67% 29.45 in 3.0 mi NW 11.5 mph 20.7 mph N/A Snow Light Snow
2:13 PM 8.6 °F -2.6 °F -0.4 °F 67% 29.47 in 5.0 mi NW 6.9 mph 18.4 mph N/A Snow Light Snow
2:34 PM 8.6 °F -3.7 °F -0.4 °F 67% 29.48 in 5.0 mi NW 8.1 mph 18.4 mph N/A Snow Light Snow
2:53 PM 8.6 °F -1.3 °F -0.4 °F 67% 29.49 in 5.0 mi NNW 5.8 mph 16.1 mph N/A Snow Light Snow
3:13 PM 8.6 °F -4.7 °F -0.4 °F 67% 29.51 in 3.0 mi NW 9.2 mph 18.4 mph N/A Snow Light Snow
3:34 PM 8.6 °F -2.6 °F -0.4 °F 67% 29.52 in 2.0 mi NW 6.9 mph - N/A Snow Light Snow
3:53 PM 8.6 °F -3.7 °F 1.4 °F 73% 29.53 in 2.5 mi NW 8.1 mph - N/A Snow Light Snow
4:13 PM 8.6 °F 0.1 °F 1.4 °F 73% 29.55 in 2.0 mi NW 4.6 mph 17.3 mph N/A Snow Light Snow
4:33 PM 8.6 °F -3.7 °F 1.4 °F 73% 29.56 in 2.5 mi NNW 8.1 mph - N/A Snow Light Snow
4:54 PM 8.6 °F -3.7 °F 1.4 °F 73% 29.57 in 1.8 mi NNW 8.1 mph 16.1 mph N/A Snow Light Snow
5:13 PM 10.4 °F 4.0 °F 3.2 °F 73% 29.58 in 1.8 mi NW 3.5 mph - N/A Snow Light Snow
5:34 PM 10.4 °F -1.5 °F 3.2 °F 73% 29.59 in 1.8 mi NNW 8.1 mph - N/A Snow Light Snow
5:53 PM 10.4 °F -0.4 °F 3.2 °F 73% 29.60 in 1.8 mi NW 6.9 mph 21.9 mph N/A Snow Light Snow
6:13 PM 10.4 °F -0.4 °F 3.2 °F 73% 29.61 in 1.5 mi NNW 6.9 mph 18.4 mph N/A Snow Light Snow
6:34 PM 10.4 °F -4.1 °F 3.2 °F 73% 29.62 in 2.0 mi NW 11.5 mph 18.4 mph N/A Snow Light Snow
6:53 PM 10.4 °F -2.4 °F 3.2 °F 73% 29.63 in 2.5 mi NNW 9.2 mph 16.1 mph N/A Snow Light Snow
7:13 PM 10.4 °F -2.4 °F 1.4 °F 67% 29.64 in 4.0 mi NNW 9.2 mph 19.6 mph N/A Snow Light Snow
7:34 PM 10.4 °F -4.8 °F 1.4 °F 67% 29.64 in 3.0 mi NNW 12.7 mph 20.7 mph N/A Snow Light Snow
7:53 PM 10.4 °F -4.1 °F 1.4 °F 67% 29.65 in 4.0 mi NNW 11.5 mph 18.4 mph N/A   Haze
8:13 PM 10.4 °F -3.3 °F 1.4 °F 67% 29.66 in 10.0 mi NNW 10.4 mph 19.6 mph N/A   Overcast
8:34 PM 10.4 °F -4.1 °F 1.4 °F 67% 29.67 in 10.0 mi NNW 11.5 mph 21.9 mph N/A   Overcast
8:53 PM 10.4 °F -4.8 °F 1.4 °F 67% 29.67 in 5.0 mi NNW 12.7 mph 21.9 mph N/A   Haze
9:13 PM 8.6 °F -7.0 °F 1.4 °F 73% 29.69 in 3.0 mi NNW 12.7 mph 21.9 mph N/A   Haze
9:34 PM 8.6 °F -5.5 °F 1.4 °F 73% 29.70 in 4.0 mi NNW 10.4 mph 21.9 mph N/A Snow Light Snow
9:53 PM 8.6 °F -6.3 °F 1.4 °F 73% 29.70 in 4.0 mi North 11.5 mph 28.8 mph N/A   Haze
10:13 PM 8.6 °F -8.3 °F -0.4 °F 67% 29.71 in 7.0 mi North 15.0 mph 23.0 mph N/A   Mostly Cloudy
10:34 PM 8.6 °F -8.3 °F -0.4 °F 67% 29.71 in 7.0 mi NNW 15.0 mph 26.5 mph N/A   Scattered Clouds
10:53 PM 8.6 °F -6.3 °F -0.4 °F 67% 29.72 in 10.0 mi NNW 11.5 mph 24.2 mph N/A   Clear
11:13 PM 8.6 °F -6.3 °F -0.4 °F 67% 29.73 in 7.0 mi NNW 11.5 mph 25.3 mph N/A   Clear
11:33 PM 8.6 °F -7.7 °F -0.4 °F 67% 29.73 in 7.0 mi North 13.8 mph 27.6 mph N/A   Scattered Clouds
11:53 PM 8.6 °F -8.9 °F -0.4 °F 67% 29.74 in 7.0 mi North 16.1 mph 27.6 mph N/A   Mostly Cloudy